Regional Weather Roundup
Issued by NWS

Home | Current Version | Previous Version | Graphics & Text | Print | Product List | Glossary Off
Versions: 1 2 3 4 5 6 7 8 9 10 11 12 13 14 15 16 17 18 19 20 21 22 23 24 25 26 27 28 29 30 31 32 33 34 35 36 37 38 39 40 41 42 43 44 45 46 47 48 49 50

000
ASUS43 KDTX 012010
RWRMI
MICHIGAN HOURLY REGIONAL WEATHER ROUNDUP
NATIONAL WEATHER SERVICE DETROIT/PONTIAC MI
400 PM EDT WED JUL 01 2015

NOTE: "FAIR" INDICATES FEW OR NO CLOUDS BELOW 12,000 FEET WITH NO
SIGNIFICANT WEATHER AND/OR OBSTRUCTION TO VISIBILITY.

MIZ047>049-052>055-059>063-066>070-074>076-081>083-012100-
SOUTHEAST LOWER MICHIGAN

CITY           SKY/WX    TMP DP  RH WIND       PRES   REMARKS
ADRIAN         PTSUNNY   72  57  59 NW7       29.92S
ALMA           PTSUNNY   67  54  63 N5        29.92F
ANN ARBOR      CLOUDY    68  57  68 NW10      29.92R
BAD AXE        CLOUDY    66  56  72 NW6       29.92S
CARO           CLOUDY    67  58  73 W8        29.91S
DETROIT CITY   CLOUDY    71  56  58 N7        29.89F
DETROIT        PTSUNNY   72  57  59 W8        29.90S
FLINT          CLOUDY    67  56  67 NW9       29.93S
GROSSE ILE     PTSUNNY   73  61  64 NW8       29.88S
HILLSDALE      MOSUNNY   71  55  56 W9        29.93S
HOWELL         CLOUDY    64  57  77 NW6       29.93S

CITY           SKY/WX    TMP DP  RH WIND       PRES   REMARKS
JACKSON        PTSUNNY   69  56  62 NW8       29.92S
LAMBERTVILLE   PTSUNNY   75  56  50 W8        29.90F
LANSING        MOSUNNY   67  51  56 W5        29.93F
LAPEER         CLOUDY    65  56  71 NW7       29.92S
MASON          MOSUNNY   65  53  64 W8        29.93S
MONROE         PTSUNNY   72  59  62 NW8       29.89S
MT. CLEMENS    PTSUNNY   70  60  70 NW10      29.88F
PONTIAC        CLOUDY    65  57  75 N7        29.91F
PORT HOPE        N/A     61  58  90 NE6       29.91S
PORT HURON     CLOUDY    64  59  82 N8        29.91R
TRI CITIES     CLOUDY    67  56  67 W6        29.93S
MIDLAND        CLOUDY    67  55  64 W3        29.92S
TROY           PTSUNNY   70  58  66 NW10      29.93S
SAGINAW HB     CLOUDY    64  54  68 W5        29.92F
$$
MIZ043>046-050>051-056>058-064>065-071>073-077>080-012100-
SOUTHWEST LOWER MICHIGAN

CITY           SKY/WX    TMP DP  RH WIND       PRES   REMARKS
BATTLE CREEK   MOSUNNY   71  51  49 NW9       29.93F
BIG RAPIDS     CLOUDY    63  48  57 NW5       29.94S
COLDWATER      MOSUNNY   70  53  54 NW5G17    29.93S
FREMONT        CLOUDY    60  53  77 N9        29.96S
HOLLAND        MOSUNNY   62  51  67 NW10      29.98S
GRAND RAPIDS   PTSUNNY   68  51  54 NW8       29.93S
IONIA          PTSUNNY   69  51  51 NW6       29.92S
KALAMAZOO      MOSUNNY   70  52  52 NW9       29.94S
LUDINGTON      CLOUDY    56  52  86 N9        30.00S
MARSHALL       MOSUNNY   72  53  52 NW6       29.92S
MOUNT PLEASANT PTSUNNY   68  52  55 N7        29.92F
MUSKEGON       CLOUDY    61  50  67 W13       29.97S
SOUTH HAVEN    CLOUDY    58  51  77 N12       29.97F
$$
MIZ016>042-012100-
NORTHERN LOWER MICHIGAN

CITY           SKY/WX    TMP DP  RH WIND       PRES   REMARKS
ALPENA         CLOUDY    61  55  81 NW7       29.93S
BEAVER ISLAND  SUNNY     63  49  62 N6        29.97S
BELLAIRE       CLOUDY    57  51  79 W3        29.97S
CADILLAC       CLOUDY    60  53  77 NW10      29.96S
CHARLEVOIX     PTSUNNY   62  53  72 W8        30.00R
FRANKFORT      CLOUDY    59  47  65 N8        30.00R
GAYLORD        CLOUDY    57  54  89 NW6       29.96R
GRAYLING       CLOUDY    60  53  79 NW10      29.96S
HARBOR SPRINGS CLOUDY    62  53  72 N5        29.95S
HOUGHTON LAKE  CLOUDY    60  52  74 NW10      29.96R
MANISTEE       CLOUDY    54  46  76 N9        30.00S
OSCODA         CLOUDY    66  56  69 N6        29.90S
PELLSTON       CLOUDY    64  52  64 N9        29.95R
ROGERS CITY    CLOUDY    62  56  81 N10       29.93S
TRAVERSE CITY  CLOUDY    58  50  75 NW8       29.97R
$$
MIZ007>008-015-012100-
EASTERN UPPER MICHIGAN

CITY           SKY/WX    TMP DP  RH WIND       PRES   REMARKS
KINROSS        MOSUNNY   61  50  67 NW14G20   29.94R
MACKINAC ISLAN CLOUDY    62  51  67 NW8       29.93S
NEWBERRY       SUNNY     60  48  64 NW13G20   29.97R
S. S. MARIE    CLOUDY    61  49  64 W9        29.93S
MUNISING         N/A     56  46  69 N6        30.02R
$$
MIZ004>006-011>014-085-012100-
CENTRAL UPPER MICHIGAN

CITY           SKY/WX    TMP DP  RH WIND       PRES   REMARKS
MANISTIQUE     SUNNY     64  46  51 N8G20     29.98R
ESCANABA       SUNNY    N/A N/A N/A N13       29.98S
MENOMINEE      MOSUNNY   63  48  59 SE9       29.98F
SAWYER-GWINN   SUNNY     59  39  47 NE12      30.03R
$$
MIZ001>003-009>011-084-012100-
WESTERN UPPER MICHIGAN

CITY           SKY/WX    TMP DP  RH WIND       PRES   REMARKS
IRON MOUNTAIN  SUNNY     69  42  37 N7        29.99S
HOUGHTON       MOSUNNY   65  42  43 N8        30.01S
COPPER HARBOR    N/A     57  49  74 N12       30.01F
IRONWOOD       SUNNY     66  45  45 NW5       30.00S
$$

ABBREVIATIONS USED IN REMARKS
   TC - TEMPERATURE IN CELSIUS
  WCI - WIND CHILL INDEX
   HX - HEAT INDEX
  VSB - VISIBILITY




USA.gov is the U.S. government's official web portal to all federal, state and local government web resources and services.